This demonstration page uses our WeatherBlox Daily Observations layout. Learn more.

Left ArrowRight Arrow

34.74481, -87.66753

Hourly Observations for June 7, 2017

Temp ( °F °C ) Dew Point ( °F °C ) Humidity (%) Winds ( mph kmh ) Pressure ( in mb ) Visibility ( mi km ) Precip ( " mm )
12:53 am 00:53 Clear 70 21.1 57 13.9 64 64 NE 6 9 29.84 1011 10 16 0.00 0.00
1:53 am 01:53 Clear 68 20 57 13.9 68 68 Calm 29.83 1010 10 16 0.00 0.00
2:53 am 02:53 Clear 65 18.3 56 13.3 73 73 N 3 6 29.83 1010 10 16 0.00 0.00
3:53 am 03:53 Clear 63 17.2 56 13.3 78 78 N 3 6 29.84 1011 10 16 0.00 0.00
4:53 am 04:53 Clear 63 17.2 55 12.8 76 76 N 7 11 29.85 1011 10 16 0.00 0.00
5:53 am 05:53 Sunny 63 17.2 55 12.8 76 76 VRB 6 9 29.87 1011 10 16 0.00 0.00
6:53 am 06:53 Sunny 66 18.9 55 12.8 68 68 VRB 3 6 29.88 1012 10 16 0.00 0.00
7:53 am 07:53 Sunny 69 20.6 53 11.7 57 57 ENE 10 17 29.89 1012 10 16 0.00 0.00
8:53 am 08:53 Sunny 73 22.8 53 11.7 50 50 ENE 12 19 29.91 1013 10 16 0.00 0.00
9:53 am 09:53 Sunny 76 24.4 52 11.1 43 43 NE 8 13 29.90 1013 10 16 0.00 0.00
10:53 am 10:53 Sunny 78 25.6 51 10.6 39 39 NE 12 19 29.90 1013 10 16 0.00 0.00
11:53 am 11:53 Sunny 80 26.7 51 10.6 37 37 NE 6 9 29.89 1012 10 16 0.00 0.00
12:53 pm 12:53 Sunny 81 27.2 51 10.6 35 35 ENE 12 19 29.89 1012 10 16 0.00 0.00
1:53 pm 13:53 Partly Cloudy 82 27.8 52 11.1 35 35 NNE 10 17 29.88 1012 10 16 0.00 0.00
2:53 pm 14:53 Mostly Sunny 83 28.3 51 10.6 33 33 NNE 10 17 29.88 1012 10 16 0.00 0.00
3:53 pm 15:53 Mostly Sunny 82 27.8 51 10.6 34 34 N 13 20 29.87 1012 10 16 0.00 0.00
4:53 pm 16:53 Partly Cloudy 83 28.3 52 11.1 34 34 N 13 20 29.88 1012 10 16 0.00 0.00
5:53 pm 17:53 Mostly Sunny 78 25.6 50 10 37 37 N 8 13 29.88 1012 10 16 0.00 0.00
6:53 pm 18:53 Mostly Sunny 78 25.6 49 9.4 36 36 N 8 13 29.89 1012 10 16 0.00 0.00
7:53 pm 19:53 Sunny 74 23.3 52 11.1 46 46 N 5 7 29.90 1013 10 16 0.00 0.00
8:53 pm 20:53 Clear 70 21.1 53 11.7 55 55 N 5 7 29.91 1013 10 16 0.00 0.00
9:53 pm 21:53 Clear 69 20.6 53 11.7 57 57 N 6 9 29.93 1014 10 16 0.00 0.00
10:53 pm 22:53 Clear 68 20 54 12.2 61 61 NNE 3 6 29.93 1014 10 16 0.00 0.00
11:53 pm 23:53 Clear 66 18.9 54 12.2 65 65 Calm 29.93 1014 10 16 0.00 0.00

Powered by AerisWeather